Time,TemperatureF,DewpointF,PressureIn,WindDirection,WindDirectionDegrees,WindSpeedMPH,WindSpeedGustMPH,Humidity,HourlyPrecipIn,Conditions,Clouds,dailyrainin,SoftwareType,DateUTC
2013-03-15 00:01:00,38.0,22.9,30.10,WSW,250,0.0,4.0,54,0.00,,---,0.00,VWS V14.01,2013-03-15 06:01:00,
2013-03-15 00:06:00,37.3,22.6,30.09,WSW,250,0.0,1.0,55,0.00,,---,0.00,VWS V14.01,2013-03-15 06:06:00,
2013-03-15 00:11:00,37.2,21.7,30.08,WSW,251,0.0,0.0,53,0.00,,---,0.00,VWS V14.01,2013-03-15 06:11:00,
2013-03-15 00:16:00,37.6,21.6,30.06,WSW,250,0.0,0.0,52,0.00,,---,0.00,VWS V14.01,2013-03-15 06:16:00,
2013-03-15 00:21:00,37.7,22.1,30.06,WSW,251,0.0,0.0,53,0.00,,---,0.00,VWS V14.01,2013-03-15 06:21:00,
2013-03-15 00:26:00,37.2,22.1,30.07,WSW,251,0.0,0.0,54,0.00,,---,0.00,VWS V14.01,2013-03-15 06:26:00,
2013-03-15 00:31:00,36.8,22.2,30.08,WSW,251,0.0,0.0,55,0.00,,---,0.00,VWS V14.01,2013-03-15 06:31:00,
2013-03-15 00:36:00,36.1,22.4,30.08,WSW,250,1.0,1.0,57,0.00,,---,0.00,VWS V14.01,2013-03-15 06:36:00,
2013-03-15 00:41:00,34.6,22.2,30.09,WSW,251,0.0,0.0,60,0.00,,---,0.00,VWS V14.01,2013-03-15 06:41:00,
2013-03-15 00:46:00,34.1,22.5,30.09,WSW,250,0.0,0.0,62,0.00,,---,0.00,VWS V14.01,2013-03-15 06:46:00,
2013-03-15 00:51:00,33.8,22.5,30.09,WSW,250,0.0,0.0,63,0.00,,---,0.00,VWS V14.01,2013-03-15 06:51:00,
2013-03-15 00:56:00,33.5,22.6,30.09,WSW,251,0.0,0.0,64,0.00,,---,0.00,VWS V14.01,2013-03-15 06:56:00,
2013-03-15 06:35:00,29.2,22.6,30.10,WSW,248,1.0,6.0,76,0.00,,---,0.00,VWS V14.01,2013-03-15 12:35:00,
2013-03-15 06:49:00,29.0,22.4,30.09,WSW,251,0.0,1.0,76,0.00,,---,0.00,VWS V14.01,2013-03-15 12:49:00,
2013-03-15 06:54:00,29.3,22.7,30.09,WSW,251,0.0,1.0,76,0.00,,---,0.00,VWS V14.01,2013-03-15 12:54:00,
2013-03-15 06:59:00,30.0,23.4,30.07,WSW,250,0.0,1.0,76,0.00,,---,0.00,VWS V14.01,2013-03-15 12:59:00,
2013-03-15 07:04:00,30.3,23.3,30.07,WSW,251,0.0,0.0,75,0.00,,---,0.00,VWS V14.01,2013-03-15 13:04:00,
2013-03-15 07:09:00,30.8,23.5,30.07,WSW,250,0.0,1.0,74,0.00,,---,0.00,VWS V14.01,2013-03-15 13:09:00,
2013-03-15 07:14:00,30.8,23.2,30.07,WSW,251,0.0,1.0,73,0.00,,---,0.00,VWS V14.01,2013-03-15 13:14:00,
2013-03-15 07:19:00,30.8,23.2,30.07,WSW,251,5.0,5.0,73,0.00,,---,0.00,VWS V14.01,2013-03-15 13:19:00,
2013-03-15 07:24:00,30.8,23.2,30.07,WSW,251,0.0,0.0,73,0.00,,---,0.00,VWS V14.01,2013-03-15 13:24:00,
2013-03-15 07:29:00,30.7,23.4,30.07,WSW,251,0.0,1.0,74,0.00,,---,0.00,VWS V14.01,2013-03-15 13:29:00,
2013-03-15 07:34:00,30.6,23.3,30.08,WSW,251,0.0,0.0,74,0.00,,---,0.00,VWS V14.01,2013-03-15 13:34:00,
2013-03-15 07:39:00,30.5,23.2,30.07,WSW,250,0.0,0.0,74,0.00,,---,0.00,VWS V14.01,2013-03-15 13:39:00,
2013-03-15 07:44:00,30.6,23.3,30.08,WSW,251,0.0,1.0,74,0.00,,---,0.00,VWS V14.01,2013-03-15 13:44:00,
2013-03-15 07:49:00,30.7,23.4,30.08,WSW,250,0.0,1.0,74,0.00,,---,0.00,VWS V14.01,2013-03-15 13:49:00,
2013-03-15 07:54:00,30.9,23.6,30.08,WSW,251,0.0,2.0,74,0.00,,---,0.00,VWS V14.01,2013-03-15 13:54:00,
2013-03-15 07:59:00,31.3,23.7,30.08,WSW,250,0.0,0.0,73,0.00,,---,0.00,VWS V14.01,2013-03-15 13:59:00,
2013-03-15 08:04:00,31.8,24.1,30.06,WSW,251,0.0,0.0,73,0.00,,---,0.00,VWS V14.01,2013-03-15 14:04:00,
2013-03-15 08:09:00,32.4,24.7,30.09,WSW,250,0.0,0.0,73,0.00,,---,0.00,VWS V14.01,2013-03-15 14:09:00,
2013-03-15 08:14:00,33.2,24.8,30.08,WSW,251,0.0,5.0,71,0.00,,---,0.00,VWS V14.01,2013-03-15 14:14:00,
2013-03-15 08:20:00,33.8,25.1,30.08,WSW,250,0.0,2.0,70,0.00,,---,0.00,VWS V14.01,2013-03-15 14:20:00,
2013-03-15 08:25:00,34.4,25.6,30.07,WSW,250,0.0,0.0,70,0.00,,---,0.00,VWS V14.01,2013-03-15 14:25:00,
2013-03-15 08:30:00,36.1,26.2,30.06,WSW,251,0.0,3.0,67,0.00,,---,0.00,VWS V14.01,2013-03-15 14:30:00,
2013-03-15 08:35:00,37.9,26.8,30.04,WSW,251,0.0,2.0,64,0.00,,---,0.00,VWS V14.01,2013-03-15 14:35:00,
2013-03-15 08:40:00,38.7,26.8,30.03,WSW,251,3.0,8.0,62,0.00,,---,0.00,VWS V14.01,2013-03-15 14:40:00,
2013-03-15 08:45:00,39.2,27.3,30.02,WSW,251,0.0,2.0,62,0.00,,---,0.00,VWS V14.01,2013-03-15 14:45:00,
2013-03-15 08:50:00,40.6,27.4,30.01,WSW,250,0.0,1.0,59,0.00,,---,0.00,VWS V14.01,2013-03-15 14:50:00,
2013-03-15 08:55:00,42.3,27.7,30.00,WSW,251,0.0,2.0,56,0.00,,---,0.00,VWS V14.01,2013-03-15 14:55:00,
2013-03-15 09:00:00,44.1,28.1,29.98,WSW,250,0.0,0.0,53,0.00,,---,0.00,VWS V14.01,2013-03-15 15:00:00,
2013-03-15 09:05:00,45.6,27.6,29.96,WSW,251,4.0,4.0,49,0.00,,---,0.00,VWS V14.01,2013-03-15 15:05:00,
2013-03-15 09:10:00,46.4,27.8,29.99,WSW,250,3.0,7.0,48,0.00,,---,0.00,VWS V14.01,2013-03-15 15:10:00,
2013-03-15 09:15:00,46.7,28.1,29.99,WSW,251,0.0,4.0,48,0.00,,---,0.00,VWS V14.01,2013-03-15 15:15:00,
2013-03-15 09:20:00,46.8,27.6,29.99,WSW,252,0.0,7.0,47,0.00,,---,0.00,VWS V14.01,2013-03-15 15:20:00,
2013-03-15 09:25:00,47.2,28.0,29.98,WSW,251,1.0,8.0,47,0.00,,---,0.00,VWS V14.01,2013-03-15 15:25:00,
2013-03-15 09:30:00,47.7,28.5,29.96,WSW,250,3.0,7.0,47,0.00,,---,0.00,VWS V14.01,2013-03-15 15:30:00,
2013-03-15 09:35:00,48.1,28.3,29.96,WSW,251,5.0,8.0,46,0.00,,---,0.00,VWS V14.01,2013-03-15 15:35:00,
2013-03-15 09:40:00,48.5,28.7,29.96,WSW,251,0.0,5.0,46,0.00,,---,0.00,VWS V14.01,2013-03-15 15:40:00,
2013-03-15 09:45:00,49.9,28.9,29.94,WSW,250,0.0,1.0,44,0.00,,---,0.00,VWS V14.01,2013-03-15 15:45:00,
2013-03-15 09:50:00,51.9,27.7,29.92,WSW,250,0.0,1.0,39,0.00,,---,0.00,VWS V14.01,2013-03-15 15:50:00,
2013-03-15 09:55:00,53.9,28.2,29.91,WSW,251,1.0,1.0,37,0.00,,---,0.00,VWS V14.01,2013-03-15 15:55:00,
2013-03-15 10:00:00,55.4,26.0,29.91,WSW,251,0.0,4.0,32,0.00,,---,0.00,VWS V14.01,2013-03-15 16:00:00,
2013-03-15 10:05:00,56.6,25.5,29.89,WSW,250,0.0,0.0,30,0.00,,---,0.00,VWS V14.01,2013-03-15 16:05:00,
2013-03-15 10:10:00,57.7,24.8,29.92,WSW,250,5.0,5.0,28,0.00,,---,0.00,VWS V14.01,2013-03-15 16:10:00,
2013-03-15 10:15:00,57.5,23.8,29.92,WSW,251,1.0,2.0,27,0.00,,---,0.00,VWS V14.01,2013-03-15 16:15:00,
2013-03-15 10:20:00,57.4,23.7,29.93,WSW,252,0.0,3.0,27,0.00,,---,0.00,VWS V14.01,2013-03-15 16:20:00,
2013-03-15 10:25:00,58.4,24.6,29.91,WSW,251,1.0,3.0,27,0.00,,---,0.00,VWS V14.01,2013-03-15 16:25:00,
2013-03-15 10:30:00,58.6,23.8,29.91,WSW,251,0.0,6.0,26,0.00,,---,0.00,VWS V14.01,2013-03-15 16:30:00,
2013-03-15 10:35:00,59.0,23.2,29.91,WSW,251,0.0,6.0,25,0.00,,---,0.00,VWS V14.01,2013-03-15 16:35:00,
2013-03-15 10:40:00,59.3,22.5,29.91,WSW,250,0.0,2.0,24,0.00,,---,0.00,VWS V14.01,2013-03-15 16:40:00,
2013-03-15 10:45:00,60.0,22.1,29.89,WSW,252,0.0,7.0,23,0.00,,---,0.00,VWS V14.01,2013-03-15 16:45:00,
2013-03-15 10:50:00,60.5,22.5,29.89,WSW,252,0.0,1.0,23,0.00,,---,0.00,VWS V14.01,2013-03-15 16:50:00,
2013-03-15 10:55:00,61.0,23.0,29.89,WSW,250,0.0,1.0,23,0.00,,---,0.00,VWS V14.01,2013-03-15 16:55:00,
2013-03-15 11:00:00,60.4,22.5,29.89,WSW,252,6.0,8.0,23,0.00,,---,0.00,VWS V14.01,2013-03-15 17:00:00,
2013-03-15 11:05:00,59.6,22.8,29.89,WSW,252,2.0,4.0,24,0.00,,---,0.00,VWS V14.01,2013-03-15 17:05:00,
2013-03-15 11:10:00,59.9,22.0,29.92,WSW,250,0.0,10.0,23,0.00,,---,0.00,VWS V14.01,2013-03-15 17:10:00,
2013-03-15 11:15:00,60.6,22.6,29.89,WSW,252,0.0,2.0,23,0.00,,---,0.00,VWS V14.01,2013-03-15 17:15:00,
2013-03-15 11:20:00,61.3,23.2,29.90,WSW,251,0.0,4.0,23,0.00,,---,0.00,VWS V14.01,2013-03-15 17:20:00,
2013-03-15 11:25:00,61.3,22.2,29.90,WSW,251,5.0,10.0,22,0.00,,---,0.00,VWS V14.01,2013-03-15 17:25:00,
2013-03-15 11:30:00,60.6,21.6,29.90,WSW,251,0.0,6.0,22,0.00,,---,0.00,VWS V14.01,2013-03-15 17:30:00,
2013-03-15 11:35:00,60.8,22.8,29.89,WSW,252,4.0,9.0,23,0.00,,---,0.00,VWS V14.01,2013-03-15 17:35:00,
2013-03-15 11:40:00,61.0,23.0,29.89,WSW,251,0.0,4.0,23,0.00,,---,0.00,VWS V14.01,2013-03-15 17:40:00,
2013-03-15 11:45:00,61.5,23.4,29.89,WSW,250,4.0,10.0,23,0.00,,---,0.00,VWS V14.01,2013-03-15 17:45:00,
2013-03-15 11:50:00,61.2,21.0,29.88,WSW,250,9.0,14.0,21,0.00,,---,0.00,VWS V14.01,2013-03-15 17:50:00,
2013-03-15 11:55:00,61.2,22.1,29.88,WSW,255,9.0,11.0,22,0.00,,---,0.00,VWS V14.01,2013-03-15 17:55:00,
2013-03-15 12:00:00,61.0,21.9,29.88,WSW,255,5.0,9.0,22,0.00,,---,0.00,VWS V14.01,2013-03-15 18:00:00,
2013-03-15 12:05:00,60.9,21.8,29.88,WSW,249,8.0,10.0,22,0.00,,---,0.00,VWS V14.01,2013-03-15 18:05:00,
2013-03-15 12:10:00,60.9,22.9,29.92,SW,236,6.0,13.0,23,0.00,,---,0.00,VWS V14.01,2013-03-15 18:10:00,
2013-03-15 12:15:00,61.1,22.0,29.91,SW,236,1.0,11.0,22,0.00,,---,0.00,VWS V14.01,2013-03-15 18:15:00,
2013-03-15 12:20:00,60.6,21.6,29.91,SW,236,5.0,9.0,22,0.00,,---,0.00,VWS V14.01,2013-03-15 18:20:00,
2013-03-15 12:25:00,60.9,21.8,29.91,SW,236,0.0,4.0,22,0.00,,---,0.00,VWS V14.01,2013-03-15 18:25:00,
2013-03-15 12:30:00,61.3,22.2,29.91,SW,236,0.0,9.0,22,0.00,,---,0.00,VWS V14.01,2013-03-15 18:30:00,
2013-03-15 12:35:00,61.4,22.2,29.90,SW,236,3.0,8.0,22,0.00,,---,0.00,VWS V14.01,2013-03-15 18:35:00,
2013-03-15 12:40:00,61.6,22.4,29.90,SW,236,11.0,11.0,22,0.00,,---,0.00,VWS V14.01,2013-03-15 18:40:00,
2013-03-15 12:45:00,61.1,20.9,29.89,WSW,237,7.0,13.0,21,0.00,,---,0.00,VWS V14.01,2013-03-15 18:45:00,
2013-03-15 12:50:00,60.5,21.5,29.89,WSW,237,5.0,10.0,22,0.00,,---,0.00,VWS V14.01,2013-03-15 18:50:00,
2013-03-15 12:55:00,60.3,20.2,29.91,WSW,238,9.0,14.0,21,0.00,,---,0.00,VWS V14.01,2013-03-15 18:55:00,
2013-03-15 13:00:00,60.0,20.0,29.91,WSW,244,3.0,13.0,21,0.00,,---,0.00,VWS V14.01,2013-03-15 19:00:00,
2013-03-15 13:05:00,59.9,21.0,29.91,WSW,244,1.0,7.0,22,0.00,,---,0.00,VWS V14.01,2013-03-15 19:05:00,
2013-03-15 13:10:00,59.8,20.9,29.92,WSW,244,2.0,6.0,22,0.00,,---,0.00,VWS V14.01,2013-03-15 19:10:00,
2013-03-15 13:15:00,59.7,20.8,29.92,WSW,244,8.0,10.0,22,0.00,,---,0.00,VWS V14.01,2013-03-15 19:15:00,
2013-03-15 13:20:00,59.6,19.6,29.92,West,260,11.0,24.0,21,0.00,,---,0.00,VWS V14.01,2013-03-15 19:20:00,
2013-03-15 13:25:00,59.6,19.6,29.92,WSW,246,10.0,16.0,21,0.00,,---,0.00,VWS V14.01,2013-03-15 19:25:00,
2013-03-15 13:30:00,59.6,19.6,29.92,West,278,6.0,25.0,21,0.00,,---,0.00,VWS V14.01,2013-03-15 19:30:00,
2013-03-15 13:35:00,59.8,19.8,29.92,WNW,288,0.0,14.0,21,0.00,,---,0.00,VWS V14.01,2013-03-15 19:35:00,
2013-03-15 13:40:00,60.2,20.1,29.90,NNW,331,1.0,19.0,21,0.00,,---,0.00,VWS V14.01,2013-03-15 19:40:00,
2013-03-15 13:45:00,60.5,21.5,29.88,NW,313,9.0,12.0,22,0.00,,---,0.00,VWS V14.01,2013-03-15 19:45:00,
2013-03-15 13:50:00,60.5,19.2,29.89,West,278,6.0,12.0,20,0.00,,---,0.00,VWS V14.01,2013-03-15 19:50:00,
2013-03-15 13:55:00,60.5,20.4,29.88,West,281,3.0,14.0,21,0.00,,---,0.00,VWS V14.01,2013-03-15 19:55:00,
2013-03-15 14:00:00,60.4,20.3,29.89,NW,324,5.0,13.0,21,0.00,,---,0.00,VWS V14.01,2013-03-15 20:00:00,
2013-03-15 14:05:00,60.4,20.3,29.89,NW,326,4.0,11.0,21,0.00,,---,0.00,VWS V14.01,2013-03-15 20:05:00,
2013-03-15 14:10:00,60.5,19.2,29.87,West,259,5.0,14.0,20,0.00,,---,0.00,VWS V14.01,2013-03-15 20:10:00,
2013-03-15 14:15:00,60.7,19.4,29.87,WSW,254,1.0,9.0,20,0.00,,---,0.00,VWS V14.01,2013-03-15 20:15:00,
2013-03-15 14:20:00,60.9,20.7,29.87,West,264,6.0,10.0,21,0.00,,---,0.00,VWS V14.01,2013-03-15 20:20:00,
2013-03-15 14:25:00,61.1,22.0,29.86,West,276,10.0,12.0,22,0.00,,---,0.00,VWS V14.01,2013-03-15 20:25:00,
2013-03-15 14:30:00,60.8,23.8,29.86,NW,315,18.0,18.0,24,0.00,,---,0.00,VWS V14.01,2013-03-15 20:30:00,
2013-03-15 14:35:00,60.7,21.7,29.85,NNW,334,6.0,13.0,22,0.00,,---,0.00,VWS V14.01,2013-03-15 20:35:00,
2013-03-15 14:40:00,60.6,21.6,29.85,NNW,334,9.0,11.0,22,0.00,,---,0.00,VWS V14.01,2013-03-15 20:40:00,
2013-03-15 14:45:00,60.8,19.5,29.85,NNW,334,2.0,14.0,20,0.00,,---,0.00,VWS V14.01,2013-03-15 20:45:00,
2013-03-15 14:50:00,60.9,22.9,29.85,NNW,334,9.0,12.0,23,0.00,,---,0.00,VWS V14.01,2013-03-15 20:50:00,
2013-03-15 14:55:00,60.8,20.6,29.85,NNW,334,6.0,13.0,21,0.00,,---,0.00,VWS V14.01,2013-03-15 20:55:00,
2013-03-15 15:00:00,60.6,21.6,29.85,NNW,334,1.0,13.0,22,0.00,,---,0.00,VWS V14.01,2013-03-15 21:00:00,
2013-03-15 15:05:00,60.5,21.5,29.84,NNW,334,6.0,16.0,22,0.00,,---,0.00,VWS V14.01,2013-03-15 21:05:00,
2013-03-15 15:10:00,60.3,21.3,29.86,NNW,334,9.0,12.0,22,0.00,,---,0.00,VWS V14.01,2013-03-15 21:10:00,
2013-03-15 15:16:00,60.2,21.2,29.86,NNW,334,6.0,13.0,22,0.00,,---,0.00,VWS V14.01,2013-03-15 21:16:00,
2013-03-15 15:21:00,60.2,20.1,29.86,NNW,338,13.0,18.0,21,0.00,,---,0.00,VWS V14.01,2013-03-15 21:21:00,
2013-03-15 15:26:00,60.2,21.2,29.86,NNW,340,8.0,16.0,22,0.00,,---,0.00,VWS V14.01,2013-03-15 21:26:00,
2013-03-15 15:31:00,60.3,21.3,29.86,NNW,328,5.0,16.0,22,0.00,,---,0.00,VWS V14.01,2013-03-15 21:31:00,
2013-03-15 15:36:00,60.4,20.3,29.86,NNW,331,4.0,16.0,21,0.00,,---,0.00,VWS V14.01,2013-03-15 21:36:00,
2013-03-15 15:41:00,60.3,21.3,29.86,NNW,329,5.0,12.0,22,0.00,,---,0.00,VWS V14.01,2013-03-15 21:41:00,
2013-03-15 15:46:00,60.5,20.4,29.86,NW,324,9.0,9.0,21,0.00,,---,0.00,VWS V14.01,2013-03-15 21:46:00,
2013-03-15 15:51:00,60.3,21.3,29.86,West,260,15.0,22.0,22,0.00,,---,0.00,VWS V14.01,2013-03-15 21:51:00,
2013-03-15 15:56:00,60.5,20.4,29.86,West,275,10.0,22.0,21,0.00,,---,0.00,VWS V14.01,2013-03-15 21:56:00,
2013-03-15 16:01:00,60.6,21.6,29.86,West,260,19.0,19.0,22,0.00,,---,0.00,VWS V14.01,2013-03-15 22:01:00,
2013-03-15 16:06:00,60.5,21.5,29.86,West,276,5.0,12.0,22,0.00,,---,0.00,VWS V14.01,2013-03-15 22:06:00,
2013-03-15 16:11:00,60.8,21.7,29.85,West,276,11.0,11.0,22,0.00,,---,0.00,VWS V14.01,2013-03-15 22:11:00,
2013-03-15 16:16:00,60.9,21.8,29.85,West,273,4.0,11.0,22,0.00,,---,0.00,VWS V14.01,2013-03-15 22:16:00,
2013-03-15 16:21:00,60.9,21.8,29.85,West,274,7.0,8.0,22,0.00,,---,0.00,VWS V14.01,2013-03-15 22:21:00,
2013-03-15 16:26:00,60.8,21.7,29.85,West,275,4.0,9.0,22,0.00,,---,0.00,VWS V14.01,2013-03-15 22:26:00,
2013-03-15 16:31:00,60.9,21.8,29.84,WNW,282,9.0,11.0,22,0.00,,---,0.00,VWS V14.01,2013-03-15 22:31:00,
2013-03-15 16:36:00,60.9,19.6,29.84,WNW,282,1.0,8.0,20,0.00,,---,0.00,VWS V14.01,2013-03-15 22:36:00,
2013-03-15 16:41:00,61.1,22.0,29.84,West,281,1.0,6.0,22,0.00,,---,0.00,VWS V14.01,2013-03-15 22:41:00,
2013-03-15 16:46:00,61.0,20.8,29.84,WNW,282,4.0,7.0,21,0.00,,---,0.00,VWS V14.01,2013-03-15 22:46:00,
2013-03-15 16:51:00,61.1,20.9,29.84,WNW,290,5.0,9.0,21,0.00,,---,0.00,VWS V14.01,2013-03-15 22:51:00,
2013-03-15 16:56:00,61.5,20.1,29.83,WNW,290,1.0,6.0,20,0.00,,---,0.00,VWS V14.01,2013-03-15 22:56:00,
2013-03-15 17:01:00,62.4,20.8,29.82,WNW,290,1.0,7.0,20,0.00,,---,0.00,VWS V14.01,2013-03-15 23:01:00,
2013-03-15 17:06:00,62.5,20.9,29.81,WNW,290,6.0,7.0,20,0.00,,---,0.00,VWS V14.01,2013-03-15 23:06:00,
2013-03-15 17:11:00,62.1,21.7,29.81,WNW,290,7.0,11.0,21,0.00,,---,0.00,VWS V14.01,2013-03-15 23:11:00,
2013-03-15 17:16:00,61.9,20.4,29.81,WNW,290,0.0,8.0,20,0.00,,---,0.00,VWS V14.01,2013-03-15 23:16:00,
2013-03-15 17:21:00,61.9,18.0,29.81,WNW,290,0.0,2.0,18,0.00,,---,0.00,VWS V14.01,2013-03-15 23:21:00,
2013-03-15 17:26:00,62.9,18.8,29.81,WNW,290,0.0,7.0,18,0.00,,---,0.00,VWS V14.01,2013-03-15 23:26:00,
2013-03-15 17:31:00,63.6,19.4,29.80,WNW,290,4.0,8.0,18,0.00,,---,0.00,VWS V14.01,2013-03-15 23:31:00,
2013-03-15 17:36:00,63.8,19.5,29.79,West,269,2.0,18.0,18,0.00,,---,0.00,VWS V14.01,2013-03-15 23:36:00,
2013-03-15 17:41:00,63.6,19.4,29.80,West,269,7.0,11.0,18,0.00,,---,0.00,VWS V14.01,2013-03-15 23:41:00,
2013-03-15 17:46:00,63.2,19.0,29.81,WSW,246,4.0,12.0,18,0.00,,---,0.00,VWS V14.01,2013-03-15 23:46:00,
2013-03-15 17:51:00,62.7,18.6,29.81,WSW,245,6.0,9.0,18,0.00,,---,0.00,VWS V14.01,2013-03-15 23:51:00,
2013-03-15 17:56:00,62.3,19.5,29.81,WSW,246,5.0,5.0,19,0.00,,---,0.00,VWS V14.01,2013-03-15 23:56:00,
2013-03-15 18:01:00,62.3,20.8,29.80,WSW,246,0.0,6.0,20,0.00,,---,0.00,VWS V14.01,2013-03-16 00:01:00,
2013-03-15 18:06:00,62.2,19.5,29.80,WSW,246,8.0,10.0,19,0.00,,---,0.00,VWS V14.01,2013-03-16 00:06:00,
2013-03-15 18:11:00,61.6,19.0,29.81,WNW,293,8.0,21.0,19,0.00,,---,0.00,VWS V14.01,2013-03-16 00:11:00,
2013-03-15 18:16:00,61.4,18.8,29.81,WNW,293,4.0,11.0,19,0.00,,---,0.00,VWS V14.01,2013-03-16 00:16:00,
2013-03-15 18:21:00,61.2,18.6,29.81,WNW,289,4.0,11.0,19,0.00,,---,0.00,VWS V14.01,2013-03-16 00:21:00,
2013-03-15 18:26:00,60.7,20.6,29.81,WNW,288,6.0,10.0,21,0.00,,---,0.00,VWS V14.01,2013-03-16 00:26:00,
2013-03-15 18:31:00,60.2,21.2,29.82,WNW,288,2.0,7.0,22,0.00,,---,0.00,VWS V14.01,2013-03-16 00:31:00,
2013-03-15 18:36:00,59.7,19.7,29.82,WNW,289,5.0,6.0,21,0.00,,---,0.00,VWS V14.01,2013-03-16 00:36:00,
2013-03-15 18:41:00,59.5,21.7,29.82,WNW,289,7.0,7.0,23,0.00,,---,0.00,VWS V14.01,2013-03-16 00:41:00,
2013-03-15 18:46:00,60.0,18.8,29.83,WNW,292,6.0,18.0,20,0.00,,---,0.00,VWS V14.01,2013-03-16 00:46:00,
2013-03-15 18:51:00,59.2,21.4,29.82,WNW,291,11.0,13.0,23,0.00,,---,0.00,VWS V14.01,2013-03-16 00:51:00,
2013-03-15 18:56:00,58.5,20.9,29.83,WNW,295,0.0,13.0,23,0.00,,---,0.00,VWS V14.01,2013-03-16 00:56:00,
2013-03-15 19:01:00,57.7,21.2,29.84,WNW,295,0.0,8.0,24,0.00,,---,0.00,VWS V14.01,2013-03-16 01:01:00,
2013-03-15 19:06:00,56.5,22.0,29.84,WNW,295,0.0,4.0,26,0.00,,---,0.00,VWS V14.01,2013-03-16 01:06:00,
2013-03-15 19:11:00,55.9,20.6,29.85,WNW,295,0.0,11.0,25,0.00,,---,0.00,VWS V14.01,2013-03-16 01:11:00,
2013-03-15 19:16:00,55.0,21.6,29.86,WNW,295,4.0,7.0,27,0.00,,---,0.00,VWS V14.01,2013-03-16 01:16:00,
2013-03-15 19:21:00,53.5,21.2,29.86,WNW,295,3.0,7.0,28,0.00,,---,0.00,VWS V14.01,2013-03-16 01:21:00,
2013-03-15 19:26:00,52.7,22.2,29.88,WNW,295,0.0,6.0,30,0.00,,---,0.00,VWS V14.01,2013-03-16 01:26:00,
2013-03-15 19:31:00,51.9,21.5,29.88,WNW,295,5.0,8.0,30,0.00,,---,0.00,VWS V14.01,2013-03-16 01:31:00,
2013-03-15 19:36:00,51.5,21.9,29.89,WNW,295,3.0,6.0,31,0.00,,---,0.00,VWS V14.01,2013-03-16 01:36:00,
2013-03-15 19:41:00,51.2,21.6,29.90,WNW,295,3.0,6.0,31,0.00,,---,0.00,VWS V14.01,2013-03-16 01:41:00,
2013-03-15 19:46:00,51.0,21.5,29.91,WNW,295,0.0,0.0,31,0.00,,---,0.00,VWS V14.01,2013-03-16 01:46:00,
2013-03-15 19:51:00,50.7,21.9,29.91,WNW,295,0.0,0.0,32,0.00,,---,0.00,VWS V14.01,2013-03-16 01:51:00,
2013-03-15 19:56:00,50.6,21.1,29.90,WNW,295,0.0,2.0,31,0.00,,---,0.00,VWS V14.01,2013-03-16 01:56:00,
2013-03-15 20:01:00,50.8,21.3,29.90,WNW,295,0.0,1.0,31,0.00,,---,0.00,VWS V14.01,2013-03-16 02:01:00,
2013-03-15 20:06:00,50.8,21.3,29.90,WNW,295,0.0,0.0,31,0.00,,---,0.00,VWS V14.01,2013-03-16 02:06:00,
2013-03-15 20:11:00,50.7,21.2,29.79,WNW,295,0.0,1.0,31,0.00,,---,0.00,VWS V14.01,2013-03-16 02:11:00,
2013-03-15 20:16:00,50.4,21.7,29.79,WNW,295,1.0,2.0,32,0.00,,---,0.00,VWS V14.01,2013-03-16 02:16:00,
2013-03-15 20:21:00,49.9,22.0,29.79,WNW,295,0.0,0.0,33,0.00,,---,0.00,VWS V14.01,2013-03-16 02:21:00,
2013-03-15 20:26:00,49.5,21.6,29.79,WNW,295,0.0,1.0,33,0.00,,---,0.00,VWS V14.01,2013-03-16 02:26:00,
2013-03-15 20:31:00,49.7,21.1,29.79,WNW,295,0.0,5.0,32,0.00,,---,0.00,VWS V14.01,2013-03-16 02:31:00,
2013-03-15 20:36:00,50.4,20.9,29.80,WNW,295,0.0,7.0,31,0.00,,---,0.00,VWS V14.01,2013-03-16 02:36:00,
2013-03-15 20:41:00,50.7,21.2,29.79,WNW,295,0.0,2.0,31,0.00,,---,0.00,VWS V14.01,2013-03-16 02:41:00,
2013-03-15 20:46:00,50.3,21.6,29.79,WNW,295,2.0,6.0,32,0.00,,---,0.00,VWS V14.01,2013-03-16 02:46:00,
2013-03-15 20:51:00,51.4,20.2,29.80,WNW,295,3.0,12.0,29,0.00,,---,0.00,VWS V14.01,2013-03-16 02:51:00,
2013-03-15 20:56:00,52.0,19.9,29.78,WNW,295,6.0,11.0,28,0.00,,---,0.00,VWS V14.01,2013-03-16 02:56:00,
2013-03-15 21:01:00,52.2,19.2,29.78,WNW,295,9.0,10.0,27,0.00,,---,0.00,VWS V14.01,2013-03-16 03:01:00,
2013-03-15 21:06:00,52.8,19.8,29.79,WNW,295,5.0,11.0,27,0.00,,---,0.00,VWS V14.01,2013-03-16 03:06:00,
2013-03-15 21:11:00,52.9,19.9,29.69,WNW,295,0.0,9.0,27,0.00,,---,0.00,VWS V14.01,2013-03-16 03:11:00,
2013-03-15 21:16:00,52.4,20.3,29.69,WNW,295,4.0,8.0,28,0.00,,---,0.00,VWS V14.01,2013-03-16 03:16:00,
2013-03-15 21:21:00,51.8,19.8,29.71,WNW,295,4.0,8.0,28,0.00,,---,0.00,VWS V14.01,2013-03-16 03:21:00,
2013-03-15 21:26:00,51.4,20.2,29.71,WNW,295,0.0,4.0,29,0.00,,---,0.00,VWS V14.01,2013-03-16 03:26:00,
2013-03-15 21:31:00,50.8,20.5,29.71,WNW,295,1.0,2.0,30,0.00,,---,0.00,VWS V14.01,2013-03-16 03:31:00,
2013-03-15 21:36:00,50.0,21.3,29.73,WNW,295,0.0,4.0,32,0.00,,---,0.00,VWS V14.01,2013-03-16 03:36:00,
2013-03-15 21:41:00,49.6,20.2,29.73,WNW,295,0.0,3.0,31,0.00,,---,0.00,VWS V14.01,2013-03-16 03:41:00,
2013-03-15 21:46:00,48.9,22.5,29.73,WNW,295,0.0,6.0,35,0.00,,---,0.00,VWS V14.01,2013-03-16 03:46:00,
2013-03-15 21:51:00,47.8,22.2,29.74,WNW,295,0.0,0.0,36,0.00,,---,0.00,VWS V14.01,2013-03-16 03:51:00,
2013-03-15 21:56:00,46.9,22.0,29.75,WNW,295,0.0,1.0,37,0.00,,---,0.00,VWS V14.01,2013-03-16 03:56:00,
2013-03-15 22:00:00,46.4,21.6,29.76,WNW,295,0.0,2.0,37,0.00,,---,0.00,VWS V14.01,2013-03-16 04:00:00,
2013-03-15 22:01:00,46.3,20.2,29.76,WNW,295,0.0,2.0,35,0.00,,---,0.00,VWS V14.01,2013-03-16 04:01:00,
2013-03-15 22:06:00,46.3,20.8,29.76,WNW,295,0.0,0.0,36,0.00,,---,0.00,VWS V14.01,2013-03-16 04:06:00,